FW8418 Weather Reports


Display with metric or nautical units.
time (UTC)temp
F
wind
direction
speed
MPH
gust
MPH
rain 1hr
in
rain 24hr
in
rain mn
in
humidity
%
barometer
mb
20260502214605 46 311 3.0 9.0 0.00 0.00 0.00 50 1016.1
20260502213104 46 309 6.0 14.0 0.00 0.00 0.00 48 1016.1
20260502211557 46 300 5.0 12.0 0.00 0.00 0.00 50 1016.1
20260502210048 47 305 8.0 15.0 0.00 0.00 0.00 47 1016.2
20260502204543 47 303 6.0 12.0 0.00 0.00 0.00 52 1016.2
20260502203109 46 314 5.0 13.0 0.00 0.00 0.00 50 1016.3
20260502201547 46 296 7.0 14.0 0.00 0.00 0.00 49 1016.5
20260502200054 46 253 5.0 14.0 0.00 0.00 0.00 49 1016.6
20260502194544 46 318 6.0 20.0 0.00 0.00 0.00 47 1016.8
20260502193047 46 313 6.0 14.0 0.00 0.00 0.00 49 1016.8
20260502191547 47 290 5.0 15.0 0.00 0.00 0.00 47 1017.0
20260502190049 46 312 11.0 18.0 0.00 0.00 0.00 47 1017.1
20260502184547 47 311 8.0 14.0 0.00 0.00 0.00 49 1017.1
20260502183047 45 312 3.0 16.0 0.00 0.00 0.00 46 1017.1
20260502181549 45 308 9.0 17.0 0.00 0.00 0.00 46 1017.4
20260502163102 45 265 4.0 13.0 0.00 0.00 0.00 48 1018.0
20260502161604 43 329 7.0 13.0 0.00 0.00 0.00 53 1018.1
20260502151555 43 298 7.0 12.0 0.00 0.00 0.00 52 1018.0
20260502123109 37 313 5.0 10.0 0.00 0.00 0.00 72 1017.9
20260502121554 37 338 5.0 11.0 0.00 0.00 0.00 75 1018.0
20260502120110 36 294 6.0 11.0 0.00 0.00 0.00 76 1017.8
20260502114543 35 360 5.0 10.0 0.00 0.00 0.00 77 1017.9
20260502113054 34 317 4.0 9.0 0.00 0.00 0.00 80 1017.7
20260502111547 33 311 2.0 7.0 0.00 0.00 0.00 82 1017.6
20260502110044 32 315 3.0 5.0 0.00 0.00 0.00 82 1017.4
20260502104546 32 304 3.0 5.0 0.00 0.00 0.00 81 1017.5
20260502103045 33 302 2.0 4.0 0.00 0.00 0.00 80 1017.5
20260502101546 33 306 2.0 4.0 0.00 0.00 0.00 79 1017.5
20260502080108 37 305 3.0 7.0 0.00 0.00 0.00 70 1016.7
20260502070101 38 287 3.0 8.0 0.00 0.00 0.00 67 1016.6
20260502064550 39 350 4.0 12.0 0.00 0.00 0.00 66 1016.7
20260502063045 39 327 5.0 9.0 0.00 0.00 0.00 67 1016.8
20260502061547 39 323 4.0 8.0 0.00 0.00 0.00 69 1016.9
20260502060052 39 321 3.0 7.0 0.00 0.00 0.00 68 1016.9
20260502054551 39 313 2.0 5.0 0.00 0.00 0.00 68 1017.1
20260502053053 39 317 4.0 9.0 0.00 0.00 0.00 66 1017.0
20260502051600 39 343 4.0 10.0 0.00 0.00 0.00 66 1017.0
20260502050047 40 326 5.0 11.0 0.00 0.00 0.00 67 1017.0
20260502044546 40 301 5.0 13.0 0.00 0.00 0.00 67 1016.9
20260502043048 40 329 4.0 15.0 0.00 0.00 0.00 68 1016.7
20260502041545 40 334 7.0 11.0 0.00 0.00 0.00 67 1016.6
20260502034547 39 326 4.0 9.0 0.00 0.00 0.00 72 1016.3
20260502033048 39 332 3.0 8.0 0.00 0.00 0.00 75 1016.4
20260502031546 39 307 4.0 9.0 0.00 0.00 0.00 75 1016.4
20260502030047 39 0 0.0 0.0 0.00 0.00 0.00 73 1016.1
20260502024544 40 313 0.0 3.0 0.00 0.00 0.00 73 1016.2
20260502023045 40 313 1.0 4.0 0.00 0.00 0.00 72 1016.1
20260502021544 40 336 3.0 10.0 0.00 0.00 0.00 72 1016.2
20260502020047 41 338 5.0 14.0 0.00 0.00 0.00 71 1016.2
20260502014545 41 293 5.0 13.0 0.00 0.00 0.00 71 1016.0
20260502013045 41 307 6.0 13.0 0.00 0.00 0.00 70 1015.9
20260502011546 41 308 7.0 13.0 0.00 0.00 0.00 71 1015.8
20260502010052 42 333 6.0 14.0 0.00 0.00 0.00 72 1015.7
20260502004546 42 310 4.0 11.0 0.00 0.00 0.00 71 1015.6
20260502003050 42 338 3.0 9.0 0.00 0.00 0.00 71 1015.6
20260502001553 42 329 4.0 10.0 0.00 0.00 0.00 69 1015.5
20260502000049 43 311 3.0 13.0 0.00 0.00 0.00 69 1015.3
20260501234547 43 329 5.0 11.0 0.00 0.00 0.00 68 1015.3
20260501233048 43 318 6.0 14.0 0.00 0.00 0.00 67 1015.1
20260501231554 43 324 6.0 15.0 0.00 0.00 0.00 66 1015.1
20260501230046 44 296 6.0 15.0 0.00 0.00 0.00 66 1015.1
20260501224545 44 298 7.0 17.0 0.00 0.00 0.00 64 1015.0
20260501223047 44 317 8.0 16.0 0.00 0.00 0.00 65 1014.8
20260501221553 45 279 5.0 14.0 0.00 0.00 0.00 65 1014.8
20260501220047 46 306 6.0 13.0 0.00 0.00 0.00 64 1014.7